FW5236 Weather Reports


time (UTC)temp
F
wind
direction
speed
knots
gust
knots
rain 1hr
in
rain 24hr
in
rain mn
in
humidity
%
barometer
mb
20260905080032 57 270 0.0 0.0 0.00 0.00 0.00 71 1018.2
20260905074531 0 0 0.0 0.0 0.00 0.00 0.00 100
20260905073031 0 0 0.0 0.0 0.00 0.00 0.00 100
20260905071532 0 0 0.0 0.0 0.00 0.00 0.00 100
20260905070030 0 0 0.0 0.0 0.00 0.00 0.00 100
20260905064531 0 0 0.0 0.0 0.00 0.00 0.00 100
20260905063029 0 0 0.0 0.0 0.00 0.00 0.00 100
20260905061531 0 0 0.0 0.0 0.00 0.00 0.00 100
20260905060031 0 0 0.0 0.0 0.00 0.00 0.00 100
20260905054531 60 45 0.0 0.0 0.00 0.00 0.00 65 1017.3
20260905053031 0 0 0.0 0.0 0.00 0.00 0.00 100
20260905051532 0 0 0.0 0.0 0.00 0.00 0.00 100
20260905050030 0 0 0.0 0.0 0.00 0.00 0.00 100
20260905044532 0 0 0.0 0.0 0.00 0.00 0.00 100
20260905041531 64 45 0.0 0.0 0.00 0.00 0.00 59 1017.0
20260905040030 0 0 0.0 0.0 0.00 0.00 0.00 100
20260905034532 0 0 0.0 0.0 0.00 0.00 0.00 100
20260905033032 0 0 0.0 0.0 0.00 0.00 0.00 100
20260905031606 0 0 0.0 0.0 0.00 0.00 0.00 100
20260905030105 0 0 0.0 0.0 0.00 0.00 0.00 100
20260905024531 0 0 0.0 0.0 0.00 0.00 0.00 100
20260905023032 0 0 0.0 0.0 0.00 0.00 0.00 100
20260905021532 0 0 0.0 0.0 0.00 0.00 0.00 100
20260905020032 0 0 0.0 0.0 0.00 0.00 0.00 100
20260905014531 65 59 0.0 1.7 0.00 0.00 0.00 57 1016.9
20260905013028 66 52 0.0 2.6 0.00 0.00 0.00 53 1016.7
20260905011530 66 28 0.0 2.6 0.00 0.00 0.00 53 1016.5
20260905010028 67 35 0.9 3.5 0.00 0.00 0.00 54 1016.3
20260905004606 68 36 0.0 4.3 0.00 0.00 0.00 56 1016.2
20260905003034 68 45 0.9 3.5 0.00 0.00 0.00 55 1016.1
20260905001528 67 55 0.9 3.5 0.00 0.00 0.00 54 1016.1
20260905000031 64 47 0.0 1.7 0.00 0.00 0.00 62 1016.1
20260904234531 62 64 0.0 0.9 0.00 0.00 0.00 64 1016.2
20260904233030 62 172 0.0 2.6 0.00 0.00 0.00 62 1016.6
20260904231533 63 265 0.9 2.6 0.00 0.00 0.00 56 1016.3
20260904230029 66 327 0.9 3.5 0.00 0.00 0.00 50 1016.0
20260904224533 68 34 0.9 2.6 0.00 0.00 0.00 46 1015.6
20260904223030 0 0 0.0 0.0 0.00 0.00 0.00 100
20260904220030 0 0 0.0 0.0 0.00 0.00 0.00 100
20260904214533 0 0 0.0 0.0 0.00 0.00 0.00 100
20260904213030 70 152 0.9 2.6 0.00 0.00 0.00 44 1015.5
20260904211531 70 168 1.7 3.5 0.00 0.00 0.00 45 1015.7
20260904210028 0 0 0.0 0.0 0.00 0.00 0.00 100
20260904204532 0 0 0.0 0.0 0.00 0.00 0.00 100
20260904203029 0 0 0.0 0.0 0.00 0.00 0.00 100
20260904201529 0 0 0.0 0.0 0.00 0.00 0.00 100
20260904200030 70 177 0.9 2.6 0.00 0.00 0.00 46 1015.8
20260904194530 69 151 0.9 3.5 0.00 0.00 0.00 47 1016.1
20260904193029 70 24 0.0 0.0 0.00 0.00 0.00 50 1016.3
20260904191531 70 74 0.0 1.7 0.00 0.00 0.00 48 1016.3
20260904190030 0 0 0.0 0.0 0.00 0.00 0.00 100
20260904183031 73 39 0.0 3.5 0.00 0.00 0.00 47 1016.3
20260904181532 73 51 0.0 3.5 0.00 0.00 0.00 48 1016.3
20260904170106 59 292 0.0 0.0 0.00 0.00 0.00 70 1016.5
20260904163033 59 297 0.0 0.9 0.00 0.00 0.00 73 1016.3
20260904161528 57 225 0.0 0.0 0.00 0.00 0.00 83 1016.4
20260904160105 55 225 0.0 0.0 0.00 0.00 0.00 87 1016.4
20260904154530 53 225 0.0 0.0 0.00 0.00 0.00 88 1016.4
20260904153107 52 225 0.0 0.9 0.00 0.00 0.00 89 1016.3
20260904151533 52 225 0.0 0.0 0.00 0.00 0.00 90 1016.2
20260904143034 50 225 0.0 0.0 0.00 0.00 0.00 91 1015.8
20260904141528 50 225 0.0 1.7 0.00 0.00 0.00 91 1015.7
20260904134530 48 227 0.0 1.7 0.00 0.00 0.00 92 1015.4
20260904133030 48 247 0.0 1.7 0.00 0.00 0.00 91 1015.2
20260904131610 48 247 0.0 0.0 0.00 0.00 0.00 90 1015.0
20260904130106 49 247 0.0 0.0 0.00 0.00 0.00 90 1014.9
20260904124606 50 247 0.0 0.0 0.00 0.00 0.00 89 1015.0
20260904123030 50 247 0.0 0.9 0.00 0.00 0.00 89 1014.9
20260904121528 50 247 0.0 0.9 0.00 0.00 0.00 88 1014.9
20260904114531 50 247 0.0 0.9 0.00 0.00 0.00 88 1014.7
20260904113030 50 247 0.0 0.0 0.00 0.00 0.00 87 1014.5
20260904111530 50 247 0.0 1.7 0.00 0.00 0.00 87 1014.5
20260904110028 50 247 0.0 0.9 0.00 0.00 0.00 87 1014.3
20260904104530 50 257 0.0 2.6 0.00 0.00 0.00 86 1014.2
20260904103031 50 283 0.9 2.6 0.00 0.00 0.00 86 1014.1
20260904101608 49 269 0.9 2.6 0.00 0.00 0.00 87 1013.9
20260904100029 49 226 1.7 2.6 0.00 0.00 0.00 88 1013.9
20260904094531 49 224 1.7 3.5 0.00 0.00 0.00 88 1013.9
20260904093029 48 225 0.9 2.6 0.00 0.00 0.00 88 1013.8
20260904091608 49 228 0.9 1.7 0.00 0.00 0.00 87 1013.7
20260904090030 49 226 0.9 2.6 0.00 0.00 0.00 86 1013.8
20260904083030 49 232 0.9 2.6 0.00 0.00 0.00 86 1013.6
20260904081530 49 231 1.7 3.5 0.00 0.00 0.00 86 1013.6